THOR AGENA D R/B (733 NORAD) Tracking and Keplerian Element Data

This shows tracking and keplerian element data for the satellite.

Feedback or suggestion? Click here.




ElementValue
Catalog733
NameTHOR AGENA D R/B
Epoch Orbit12556
Epoch Day12.87215682
Epoch Year2024
RAAN335.0941
Inclination99.0534
Eccentricity0.0034048
Argument of Perigee30.6826
Mean Anonmoly329.6338
Mean Motion14.33017033
Decay Rate6.2E-06
L11 00733U 64002A 24012.87215682 .00000620 00000+0 24237-3 0 9991
L22 00733 99.0534 335.0941 0034048 30.6826 329.6338 14.33017033125562



Live tracking and technical data element details for THOR AGENA D R/B (NORAD 733). THOR AGENA D R/B can be tracked NOW for your location showing map with azimuth and elevation plus other details from your city location.







IsCatalogInMostPopularTable: catalog: 733, numindb: 490
Update: records affected: 1



GetName: 733 THOR AGENA D R/B

Hit Count: updated at: Mon, 15 Apr 2024 00:22:03 GMT